• In Uzbekistan
  • List of Countries
  • For 7 days
  • Water Temperature
  • Satellite Maps
  • Weather Map
  • Weather Widgets
  • user-avatar
    Login

    Hourly Weather San Luis

    Today, 11 December, Sunday

    Time Temperature Precipitation Wind Pressure Humidity
    00:00 +25°C° 0 mm 3 mps 697 mmHg 31%
    01:00 +23°C° 0 mm 4 mps 697 mmHg 33%
    02:00 +22°C° 0 mm 6 mps 697 mmHg 35%
    03:00 +21°C° 0 mm 5 mps 698 mmHg 37%
    04:00 +21°C° 0 mm 5 mps 698 mmHg 39%
    05:00 +20°C° 0 mm 5 mps 699 mmHg 40%
    06:00 +21°C° 0 mm 6 mps 699 mmHg 39%
    07:00 +21°C° 0 mm 6 mps 700 mmHg 38%
    08:00 +22°C° 0 mm 7 mps 700 mmHg 37%
    09:00 +23°C° 0 mm 6 mps 700 mmHg 33%
    10:00 +26°C° 0 mm 6 mps 700 mmHg 30%
    11:00 +27°C° 0 mm 5 mps 700 mmHg 27%
    12:00 +28°C° 0 mm 4 mps 700 mmHg 25%
    13:00 +29°C° 0 mm 3 mps 699 mmHg 24%
    14:00 +30°C° 0 mm 2 mps 698 mmHg 22%
    15:00 +30°C° 0 mm 1 mps 697 mmHg 22%
    16:00 +31°C° 0 mm 1 mps 697 mmHg 21%
    17:00 +29°C° 0 mm 0 mps 696 mmHg 21%
    18:00 +29°C° 0 mm 1 mps 695 mmHg 25%
    19:00 +27°C° 0 mm 1 mps 695 mmHg 30%
    20:00 +25°C° 0 mm 1 mps 694 mmHg 34%
    21:00 +25°C° 0 mm 2 mps 694 mmHg 33%
    22:00 +24°C° 0 mm 2 mps 694 mmHg 33%
    23:00 +24°C° 0 mm 3 mps 694 mmHg 32%

    Tomorrow, 12 December, Monday

    Time Temperature Precipitation Wind Pressure Humidity
    00:00 +24°C° 0 mm 3 mps 693 mmHg 33%
    01:00 +23°C° 0 mm 4 mps 692 mmHg 33%
    02:00 +22°C° 0 mm 4 mps 692 mmHg 34%
    03:00 +22°C° 0 mm 4 mps 691 mmHg 34%
    04:00 +22°C° 0 mm 4 mps 691 mmHg 35%
    05:00 +22°C° 0 mm 4 mps 691 mmHg 35%
    06:00 +25°C° 0 mm 4 mps 692 mmHg 32%
    07:00 +27°C° 0 mm 5 mps 692 mmHg 28%
    08:00 +30°C° 0 mm 6 mps 693 mmHg 25%
    09:00 +32°C° 0 mm 5 mps 693 mmHg 22%
    10:00 +34°C° 0 mm 5 mps 693 mmHg 20%
    11:00 +35°C° 0 mm 4 mps 693 mmHg 18%
    12:00 +36°C° 0 mm 4 mps 692 mmHg 17%
    13:00 +36°C° 0 mm 3 mps 692 mmHg 16%
    14:00 +37°C° 0 mm 3 mps 691 mmHg 16%
    15:00 +37°C° 0 mm 3 mps 691 mmHg 15%
    16:00 +37°C° 0 mm 4 mps 691 mmHg 15%
    17:00 +37°C° 0 mm 4 mps 690 mmHg 15%
    18:00 +35°C° 0 mm 5 mps 691 mmHg 16%
    19:00 +33°C° 0 mm 7 mps 692 mmHg 16%
    20:00 +29°C° 0 mm 8 mps 693 mmHg 16%
    21:00 +27°C° 0 mm 9 mps 694 mmHg 16%
    22:00 +24°C° 0 mm 9 mps 695 mmHg 15%
    23:00 +22°C° 0 mm 10 mps 697 mmHg 14%

    Day after tomorrow, 13 December, Tuesday

    Time Temperature Precipitation Wind Pressure Humidity
    00:00 +21°C° 0 mm 9 mps 697 mmHg 16%
    01:00 +18°C° 0 mm 9 mps 698 mmHg 17%
    02:00 +17°C° 0 mm 8 mps 698 mmHg 19%
    03:00 +16°C° 0 mm 7 mps 699 mmHg 21%
    04:00 +16°C° 0 mm 6 mps 699 mmHg 22%
    05:00 +15°C° 0 mm 5 mps 699 mmHg 24%
    06:00 +16°C° 0 mm 6 mps 700 mmHg 24%
    07:00 +16°C° 0 mm 6 mps 701 mmHg 24%
    08:00 +17°C° 0 mm 6 mps 702 mmHg 25%
    09:00 +19°C° 0 mm 6 mps 702 mmHg 22%
    10:00 +21°C° 0 mm 5 mps 702 mmHg 19%
    11:00 +22°C° 0 mm 5 mps 702 mmHg 16%
    12:00 +23°C° 0 mm 4 mps 702 mmHg 15%
    13:00 +26°C° 0 mm 4 mps 701 mmHg 15%
    14:00 +27°C° 0 mm 4 mps 701 mmHg 14%
    15:00 +27°C° 0 mm 4 mps 700 mmHg 14%
    16:00 +27°C° 0 mm 4 mps 700 mmHg 14%
    17:00 +27°C° 0 mm 4 mps 699 mmHg 14%
    18:00 +25°C° 0 mm 4 mps 700 mmHg 17%
    19:00 +22°C° 0 mm 4 mps 700 mmHg 19%
    20:00 +21°C° 0 mm 4 mps 700 mmHg 22%
    21:00 +20°C° 0 mm 4 mps 701 mmHg 21%
    22:00 +19°C° 0 mm 4 mps 701 mmHg 21%
    23:00 +18°C° 0 mm 4 mps 702 mmHg 21%

    14 December, Wednesday

    Time Temperature Precipitation Wind Pressure Humidity
    00:00 +18°C° 0 mm 4 mps 701 mmHg 21%
    01:00 +17°C° 0 mm 4 mps 701 mmHg 20%
    02:00 +17°C° 0 mm 4 mps 701 mmHg 20%
    03:00 +17°C° 0 mm 4 mps 701 mmHg 20%
    04:00 +15°C° 0 mm 4 mps 701 mmHg 20%
    05:00 +15°C° 0 mm 5 mps 701 mmHg 20%
    06:00 +19°C° 0 mm 4 mps 702 mmHg 19%
    07:00 +21°C° 0 mm 4 mps 703 mmHg 18%
    08:00 +25°C° 0 mm 4 mps 703 mmHg 16%
    09:00 +26°C° 0 mm 4 mps 703 mmHg 15%
    10:00 +28°C° 0 mm 4 mps 703 mmHg 14%
    11:00 +30°C° 0 mm 4 mps 703 mmHg 12%
    12:00 +32°C° 0 mm 4 mps 702 mmHg 12%
    13:00 +33°C° 0 mm 5 mps 701 mmHg 12%
    14:00 +34°C° 0 mm 5 mps 701 mmHg 11%
    15:00 +34°C° 0 mm 5 mps 700 mmHg 12%
    16:00 +34°C° 0 mm 5 mps 699 mmHg 12%
    17:00 +34°C° 0 mm 5 mps 699 mmHg 12%
    18:00 +30°C° 0 mm 5 mps 699 mmHg 15%
    19:00 +28°C° 0 mm 5 mps 699 mmHg 18%
    20:00 +26°C° 0 mm 4 mps 698 mmHg 20%
    21:00 +26°C° 0 mm 5 mps 699 mmHg 21%
    22:00 +24°C° 0 mm 6 mps 699 mmHg 21%
    23:00 +24°C° 0 mm 7 mps 699 mmHg 22%

    15 December, Thursday

    Time Temperature Precipitation Wind Pressure Humidity
    00:00 +23°C° 0 mm 8 mps 699 mmHg 22%
    01:00 +23°C° 0 mm 8 mps 699 mmHg 23%
    02:00 +23°C° 0 mm 8 mps 698 mmHg 24%
    03:00 +22°C° 0 mm 8 mps 698 mmHg 24%
    04:00 +22°C° 0 mm 9 mps 698 mmHg 24%
    05:00 +22°C° 0 mm 9 mps 698 mmHg 23%
    06:00 +23°C° 0 mm 10 mps 699 mmHg 22%
    07:00 +26°C° 0 mm 11 mps 699 mmHg 21%
    08:00 +27°C° 0 mm 12 mps 700 mmHg 20%
    09:00 +29°C° 0 mm 12 mps 700 mmHg 19%
    10:00 +31°C° 0 mm 11 mps 700 mmHg 18%
    11:00 +33°C° 0 mm 11 mps 699 mmHg 17%
    12:00 +33°C° 0 mm 11 mps 699 mmHg 17%
    13:00 +34°C° 0 mm 11 mps 698 mmHg 16%
    14:00 +36°C° 0 mm 11 mps 698 mmHg 16%
    15:00 +36°C° 0 mm 11 mps 698 mmHg 17%
    16:00 +36°C° 0 mm 10 mps 697 mmHg 17%
    17:00 +34°C° 0 mm 10 mps 697 mmHg 18%
    18:00 +32°C° 0 mm 9 mps 697 mmHg 21%
    19:00 +29°C° 0 mm 8 mps 697 mmHg 23%
    20:00 +28°C° 0 mm 7 mps 697 mmHg 26%
    21:00 +27°C° 0 mm 8 mps 697 mmHg 26%
    22:00 +27°C° 0 mm 8 mps 697 mmHg 26%
    23:00 +26°C° 0 mm 9 mps 698 mmHg 25%

    16 December, Friday

    Time Temperature Precipitation Wind Pressure Humidity
    00:00 +26°C° 0 mm 9 mps 697 mmHg 24%
    01:00 +24°C° 0 mm 9 mps 697 mmHg 23%
    02:00 +24°C° 0 mm 9 mps 697 mmHg 22%
    03:00 +24°C° 0 mm 9 mps 697 mmHg 23%
    04:00 +23°C° 0 mm 9 mps 697 mmHg 23%
    05:00 +23°C° 0 mm 9 mps 697 mmHg 23%
    06:00 +24°C° 0 mm 9 mps 697 mmHg 22%
    07:00 +27°C° 0 mm 10 mps 698 mmHg 21%
    08:00 +28°C° 0 mm 11 mps 698 mmHg 21%
    09:00 +31°C° 0 mm 10 mps 698 mmHg 20%
    10:00 +32°C° 0 mm 10 mps 698 mmHg 19%
    11:00 +34°C° 0 mm 9 mps 698 mmHg 18%
    12:00 +34°C° 0 mm 9 mps 697 mmHg 18%
    13:00 +35°C° 0 mm 8 mps 697 mmHg 17%
    14:00 +37°C° 0 mm 8 mps 696 mmHg 17%
    15:00 +37°C° 0 mm 8 mps 695 mmHg 17%
    16:00 +36°C° 0 mm 7 mps 695 mmHg 18%
    17:00 +36°C° 0 mm 7 mps 694 mmHg 18%
    18:00 +34°C° 0 mm 6 mps 694 mmHg 21%
    19:00 +30°C° 0 mm 5 mps 694 mmHg 24%
    20:00 +28°C° 0 mm 4 mps 694 mmHg 27%
    21:00 +28°C° 0 mm 5 mps 695 mmHg 27%
    22:00 +27°C° 0 mm 6 mps 695 mmHg 28%
    23:00 +27°C° 0 mm 7 mps 695 mmHg 28%
    Show more